Latest Coastal Weather Observations for Whyalla

IDS60701

Issued at 10:01 pm CDT Friday 19 January 2018 (issued every 10 minutes, with the page automatically refreshed every 10 minutes)

About coastal observations | Map of coastal stations | Coastal observations for SA | Marine services | Other Formats
Station Details ID: 018120 Name: WHYALLA AERO Lat: -33.05 Lon: 137.52 Height: 9.3 m
Data from the previous 72 hours. | See also: Recent months at Whyalla
Date/Time
CDT
Temp
°C
Wind Pressure Rain since
9am
mm
Weather Cloud Vis
km
Sea
Height
m
Swell
Dir  Spd
kts
Gust
kts
hPa Trend Height
m
Period
s
Dir
19/10:00pm 30.5 SSW 9 12 1008.3 - 0.0 - Clear 10 - - - -
19/09:30pm 31.4 SSW 11 16 1007.8 - 0.0 - - 10 - - - -
19/09:00pm 31.8 S 11 16 1007.3 - 0.0 - Mostly clear 10 - - - -
19/08:30pm 33.7 SSW 15 20 1006.8 - 0.0 - - 10 - - - -
19/08:00pm 31.9 SSW 18 22 1006.6 - 0.0 - - 10 - - - -
19/07:30pm 36.3 ESE 9 19 1006.0 - 0.0 - - 10 - - - -
19/07:00pm 39.1 E 9 13 1005.3 - 0.0 - - 10 - - - -
19/06:30pm 40.3 E 11 15 1005.3 - 0.0 - - 10 - - - -
19/06:00pm 41.5 E 12 19 1005.4 - 0.0 - Mostly clear 10 - - - -
19/05:30pm 42.2 E 14 19 1005.5 - 0.0 - - 10 - - - -
19/05:00pm 42.7 E 14 19 1005.8 - 0.0 - - 10 - - - -
19/04:30pm 43.6 E 14 18 1006.1 - 0.0 - - 10 - - - -
19/04:00pm 43.0 E 9 14 1006.7 - 0.0 - - 10 - - - -
19/03:30pm 43.3 NW 11 16 1007.1 - 0.0 - - 10 - - - -
19/03:17pm 45.3 N 10 32 1006.7 - 0.0 - - 10 - - - -
19/03:16pm 46.4 NNE 9 32 1006.6 - 0.0 - - 10 - - - -
19/03:00pm 44.8 NNW 13 20 1007.4 - 0.0 - Partly cloudy 10 - - - -
19/02:39pm 44.5 NNW 9 33 1007.3 - 0.0 - - 10 - - - -
19/02:30pm 45.0 NE 6 13 1007.7 - 0.0 - - 10 - - - -
19/02:00pm 44.6 N 8 14 1007.9 - 0.0 - - 10 - - - -
19/01:30pm 44.9 NNW 13 23 1008.3 - 0.0 - - 10 - - - -
19/01:00pm 44.0 N 13 21 1008.7 - 0.0 - - 10 - - - -
19/12:30pm 43.4 NNW 17 27 1009.0 - 0.0 - - 10 - - - -
19/12:28pm 43.6 NNW 17 27 1009.0 - 0.0 - - 10 - - - -
19/12:00pm 43.7 NNW 18 26 1009.3 - 0.0 - - 10 - - - -
19/11:30am 42.7 NNW 18 25 1009.4 - 0.0 - - 10 - - - -
19/11:00am 41.8 NW 20 27 1009.6 - 0.0 - - 10 - - - -
19/10:30am 41.5 NNW 16 21 1009.6 - 0.0 - - 10 - - - -
19/10:00am 40.2 NNW 16 22 1009.9 - 0.0 - - 10 - - - -
19/09:30am 39.1 NNW 16 22 1009.9 - 0.0 - - 10 - - - -
19/09:00am 38.0 NNW 14 19 1009.9 - 0.0 - - 10 - - - -
19/08:30am 36.2 N 8 12 1009.9 - 0.0 - - 10 - - - -
19/08:00am 34.2 N 10 12 1009.7 - 0.0 - - 10 - - - -
19/07:30am 32.5 NNW 8 10 1009.4 - 0.0 - - 10 - - - -
19/07:00am 30.6 NNW 7 12 1009.1 - 0.0 - - 10 - - - -
19/06:30am 29.6 NNW 8 10 1008.8 - 0.0 - - 10 - - - -
19/06:00am 27.2 NNW 7 9 1008.6 - 0.0 - - 10 - - - -
19/05:30am 25.8 NNW 5 6 1008.4 - 0.0 - - 10 - - - -
19/05:00am 26.8 NW 7 9 1008.3 - 0.0 - - 10 - - - -
19/04:30am 26.8 WNW 6 8 1008.0 - 0.0 - - 10 - - - -
19/04:00am 27.7 NW 6 7 1007.7 - 0.0 - - 10 - - - -
19/03:30am 27.4 WNW 7 8 1007.7 - 0.0 - - 10 - - - -
19/03:00am 26.9 WNW 6 7 1007.6 - 0.0 - - 10 - - - -
19/02:30am 27.8 WNW 4 5 1007.7 - 0.0 - - 10 - - - -
19/02:00am 28.1 N 2 5 1007.8 - 0.0 - - 10 - - - -
19/01:30am 29.8 N 1 3 1007.8 - 0.0 - - 10 - - - -
19/01:00am 30.4 ENE 6 9 1007.9 - 0.0 - - 10 - - - -
19/12:30am 30.4 N 2 5 1007.9 - 0.0 - - 10 - - - -
19/12:00am 33.6 NNE 5 6 1007.9 - 0.0 - - 10 - - - -
 
Date/Time
CDT
Temp
°C
Wind Pressure Rain since
9am
mm
Weather Cloud Vis
km
Sea
Height
m
Swell
Dir  Spd
kts
Gust
kts
hPa Trend Height
m
Period
s
Dir
18/11:30pm 34.5 NNE 7 8 1008.1 - 0.0 - - 10 - - - -
18/11:00pm 35.0 NNE 7 8 1008.0 - 0.0 - - 10 - - - -
18/10:30pm 34.6 NNE 6 7 1008.0 - 0.0 - - 10 - - - -
18/10:00pm 33.2 NNE 5 7 1007.7 - 0.0 - - 10 - - - -
18/09:30pm 31.3 E 5 6 1007.4 - 0.0 - - 10 - - - -
18/09:00pm 32.7 E 7 9 1007.1 - 0.0 - - 10 - - - -
18/08:30pm 33.7 E 7 9 1007.0 - 0.0 - - 10 - - - -
18/08:00pm 35.6 ENE 9 12 1006.8 - 0.0 - - 10 - - - -
18/07:30pm 37.6 E 10 14 1006.7 - 0.0 - - 10 - - - -
18/07:00pm 40.1 E 10 14 1006.6 - 0.0 - - 10 - - - -
18/06:30pm 40.3 E 6 14 1006.5 - 0.0 - - 10 - - - -
18/06:00pm 40.8 E 7 12 1006.7 - 0.0 - - 10 - - - -
18/05:30pm 40.0 ENE 9 15 1006.7 - 0.0 - - 10 - - - -
18/05:00pm 40.5 E 7 14 1007.3 - 0.0 - - 10 - - - -
18/04:30pm 41.3 NE 6 11 1007.6 - 0.0 - - 10 - - - -
18/04:00pm 42.7 N 6 13 1008.2 - 0.0 - - 10 - - - -
18/03:30pm 42.6 NNW 11 20 1008.3 - 0.0 - - 10 - - - -
18/03:00pm 41.9 N 13 18 1008.7 - 0.0 - - 10 - - - -
18/02:30pm 41.2 N 11 17 1009.1 - 0.0 - - 10 - - - -
18/02:00pm 42.1 N 11 19 1009.6 - 0.0 - - 10 - - - -
18/01:30pm 40.7 N 11 21 1010.1 - 0.0 - - 10 - - - -
18/01:00pm 40.6 N 11 18 1010.5 - 0.0 - - 10 - - - -
18/12:30pm 41.2 NNE 11 16 1010.7 - 0.0 - - 10 - - - -
18/12:00pm 40.0 NNW 11 21 1011.1 - 0.0 - - 10 - - - -
18/11:30am 39.9 N 13 21 1011.3 - 0.0 - - 10 - - - -
18/11:00am 39.6 N 17 23 1011.5 - 0.0 - - 10 - - - -
18/10:30am 39.3 N 14 21 1011.7 - 0.0 - - 10 - - - -
18/10:00am 37.6 NNE 12 15 1011.8 - 0.0 - - 10 - - - -
18/09:30am 36.0 N 7 11 1012.1 - 0.0 - - 10 - - - -
18/09:00am 31.5 N 3 5 1012.4 - 0.0 - - 10 - - - -
18/08:30am 27.8 CALM 0 0 1012.4 - 0.0 - - 10 - - - -
18/08:00am 24.7 NW 3 4 1012.3 - 0.0 - - 10 - - - -
18/07:30am 20.8 NNW 4 5 1012.0 - 0.0 - - 10 - - - -
18/07:00am 17.4 WNW 6 7 1011.7 - 0.0 - - 10 - - - -
18/06:30am 16.4 NW 5 6 1011.4 - 0.0 - - 10 - - - -
18/06:00am 17.1 NW 6 6 1011.2 - 0.0 - - 10 - - - -
18/05:30am 17.6 NW 3 5 1011.1 - 0.0 - - 10 - - - -
18/05:00am 18.8 N 3 4 1010.9 - 0.0 - - 10 - - - -
18/04:30am 18.9 NW 4 5 1010.5 - 0.0 - - 10 - - - -
18/04:00am 19.3 N 2 4 1010.3 - 0.0 - - 10 - - - -
18/03:30am 20.5 N 3 4 1010.3 - 0.0 - - 10 - - - -
18/03:00am 21.4 NNW 5 6 1010.4 - 0.0 - - 10 - - - -
18/02:30am 21.9 W 3 4 1010.6 - 0.0 - - 10 - - - -
18/02:00am 22.8 WSW 7 10 1010.7 - 0.0 - - 10 - - - -
18/01:30am 23.6 SE 5 6 1010.7 - 0.0 - - 10 - - - -
18/01:00am 25.3 E 3 4 1011.1 - 0.0 - - 10 - - - -
18/12:30am 27.6 ENE 3 7 1011.2 - 0.0 - - 10 - - - -
18/12:00am 27.2 NE 4 5 1011.2 - 0.0 - - 10 - - - -
 
Date/Time
CDT
Temp
°C
Wind Pressure Rain since
9am
mm
Weather Cloud Vis
km
Sea
Height
m
Swell
Dir  Spd
kts
Gust
kts
hPa Trend Height
m
Period
s
Dir
17/11:30pm 28.1 E 3 7 1011.2 - 0.0 - - 10 - - - -
17/11:00pm 27.2 E 4 5 1011.0 - 0.0 - - 10 - - - -
17/10:30pm 28.0 E 4 5 1010.7 - 0.0 - - 10 - - - -
17/10:00pm 29.3 ESE 5 7 1010.6 - 0.0 - - 10 - - - -
17/09:30pm 29.4 ESE 4 6 1010.4 - 0.0 - - 10 - - - -
17/09:00pm 30.0 ESE 4 7 1010.2 - 0.0 - - 10 - - - -
17/08:30pm 31.0 SE 6 9 1010.0 - 0.0 - - 10 - - - -
17/08:00pm 32.6 SE 8 12 1009.9 - 0.0 - - 10 - - - -
17/07:30pm 33.7 SE 8 12 1009.7 - 0.0 - - 10 - - - -
17/07:00pm 36.1 SE 8 11 1009.5 - 0.0 - - 10 - - - -
17/06:30pm 38.0 ESE 9 13 1009.3 - 0.0 - - 10 - - - -
17/06:00pm 38.0 ESE 10 13 1009.4 - 0.0 - - 10 - - - -
17/05:30pm 37.6 ESE 11 14 1009.7 - 0.0 - - 10 - - - -
17/05:00pm 37.5 SE 11 15 1009.9 - 0.0 - - 10 - - - -
17/04:30pm 37.8 SE 12 15 1010.2 - 0.0 - - 10 - - - -
17/04:00pm 37.2 SE 12 15 1010.5 - 0.0 - - 10 - - - -
17/03:30pm 37.1 SE 13 16 1010.9 - 0.0 - - 10 - - - -
17/03:00pm 37.1 SE 13 17 1011.3 - 0.0 - - 10 - - - -
17/02:30pm 37.0 ESE 13 16 1011.6 - 0.0 - - 10 - - - -
17/02:00pm 36.0 ESE 13 16 1011.9 - 0.0 - - 10 - - - -
17/01:30pm 35.2 E 11 15 1012.2 - 0.0 - - 10 - - - -
17/01:00pm 33.7 ESE 9 12 1012.6 - 0.0 - - 10 - - - -
17/12:30pm 33.1 ESE 9 11 1012.9 - 0.0 - - 10 - - - -
17/12:00pm 32.8 ESE 8 10 1013.2 - 0.0 - - 10 - - - -
17/11:30am 31.5 SE 8 11 1013.6 - 0.0 - - 10 - - - -
17/11:00am 30.5 SE 7 9 1013.7 - 0.0 - - 10 - - - -
17/10:30am 29.6 SSE 7 9 1013.8 - 0.0 - - 10 - - - -
17/10:00am 28.8 SE 6 7 1013.8 - 0.0 - - 10 - - - -
17/09:30am 28.2 NNW 3 5 1014.1 - 0.0 - - 10 - - - -
17/09:00am 26.1 SSW 4 6 1014.3 - 0.0 - - 10 - - - -
17/08:30am 24.5 SSW 3 6 1014.3 - 0.0 - - 10 - - - -
17/08:00am 22.2 W 2 4 1014.3 - 0.0 - - 10 - - - -
17/07:30am 19.6 WNW 4 5 1014.2 - 0.0 - - 10 - - - -
17/07:00am 17.1 NW 5 6 1013.9 - 0.0 - - - - - - -
17/06:30am 16.3 NW 4 5 1013.6 - 0.0 - - 10 - - - -
17/06:00am 16.6 WNW 4 6 1013.3 - 0.0 - - 10 - - - -
17/05:30am 17.7 SSW 3 5 1013.2 - 0.0 - - 10 - - - -
17/05:00am 18.6 SSW 5 6 1013.1 - 0.0 - - 10 - - - -
17/04:30am 19.4 SSW 6 7 1013.1 - 0.0 - - 10 - - - -
17/04:00am 19.2 SSW 6 6 1013.2 - 0.0 - - 10 - - - -
17/03:30am 18.4 SW 4 5 1013.4 - 0.0 - - 10 - - - -
17/03:00am 19.5 SW 3 4 1013.5 - 0.0 - - 10 - - - -
17/02:30am 20.1 WSW 4 5 1013.6 - 0.0 - - 10 - - - -
17/02:00am 20.7 SW 5 6 1013.8 - 0.0 - - 10 - - - -
17/01:30am 21.5 SSW 5 6 1014.0 - 0.0 - - 10 - - - -
17/01:00am 21.8 S 6 7 1014.2 - 0.0 - - 10 - - - -
17/12:30am 22.1 SSW 6 7 1014.6 - 0.0 - - 10 - - - -
17/12:00am 22.8 SSW 6 8 1014.7 - 0.0 - - 10 - - - -
 
Date/Time
CDT
Temp
°C
Wind Pressure Rain since
9am
mm
Weather Cloud Vis
km
Sea
Height
m
Swell
Dir  Spd
kts
Gust
kts
hPa Trend Height
m
Period
s
Dir
16/11:30pm 23.6 S 8 10 1014.8 - 0.0 - - 10 - - - -
16/11:00pm 23.9 S 8 10 1014.8 - 0.0 - - 10 - - - -
16/10:30pm 23.9 SSW 7 9 1014.8 - 0.0 - - 10 - - - -

Other Formats:

Comma delimited format used in spreadsheet applications
http://www.bom.gov.au/fwo/IDS60701/IDS60701.95664.axf

JavaScript Object Notation format (JSON) in row-major order
http://www.bom.gov.au/fwo/IDS60701/IDS60701.95664.json